DW2802 Ogijares ES current weather conditions

sailwx.info

Wind from 163

Air temperature 19.4° C
Dewpoint 10.2° C

Last reported at 2016-Jun-25 05:31 UTC.
Time now 2016-Jun-25 07:03 UTC

Location: N 37°07' W 003°36'.
View on Google Maps.

See reports from other nearby stations

  
Tides and Currents Weather Stations Pressure Air Temp Water Temp Dewpoint Dewpoint Depression Visibility Wind Speed Wind Dir Waves Ship Positions
date/time (UTC)wind fromknots sea level pressurealtimeterstation pressurevisibilityair tempwater tempwave heightnotes
2016-Jun-25 05:31 163 19.4
2016-Jun-25 05:16 163 20.0
2016-Jun-25 05:01 163 20.0
2016-Jun-25 04:46 163 20.0
2016-Jun-25 04:31 165 20.0
2016-Jun-25 04:16 165 19.4
2016-Jun-25 04:01 165 20.0
2016-Jun-25 03:46 165 20.6
2016-Jun-25 03:31 165 20.6
2016-Jun-25 03:16 168 20.6
2016-Jun-25 03:01 168 20.6
2016-Jun-25 02:46 168 21.1
2016-Jun-25 02:31 168 21.1
2016-Jun-25 02:16 169 21.1
2016-Jun-25 02:01 169 21.7
2016-Jun-25 01:46 169 21.7
2016-Jun-25 01:31 170 21.7
2016-Jun-25 01:16 171 21.7
2016-Jun-25 01:01 171 21.7
2016-Jun-25 00:46 171 22.2
2016-Jun-25 00:31 171 22.2
2016-Jun-25 00:15 171 22.8
2016-Jun-25 00:00 171 23.3
2016-Jun-24 23:45 172 23.9
2016-Jun-24 23:30 173 24.4
2016-Jun-24 23:15 173 25.0
2016-Jun-24 23:00 192 25.6
2016-Jun-24 22:45 192 26.1
2016-Jun-24 22:30 176 26.1
2016-Jun-24 22:15 171 2 gusting 6 26.1
2016-Jun-24 22:00 184 0 gusting 5 26.1
2016-Jun-24 21:45 210 1 gusting 5 26.1
2016-Jun-24 21:30 230 3 gusting 7 26.7
2016-Jun-24 21:15 161 27.2
2016-Jun-24 21:00 156 2 gusting 5 27.2
2016-Jun-24 20:45 170 27.8
2016-Jun-24 20:30 175 0 gusting 4 28.3
2016-Jun-24 20:15 176 0 gusting 4 28.9
2016-Jun-24 20:04 181 29.4
2016-Jun-24 19:50 192 1 gusting 6 29.4
2016-Jun-24 19:38 190 0 gusting 5 30.0
2016-Jun-24 19:27 202 1 gusting 6 30.6
2016-Jun-24 19:01 205 3 gusting 7 31.1
2016-Jun-24 18:46 200 4 gusting 7 31.7
2016-Jun-24 18:32 225 5 gusting 12 32.2
2016-Jun-24 18:18 201 5 gusting 10 32.2
2016-Jun-24 18:00 211 4 gusting 8 32.8
2016-Jun-24 17:46 204 3 gusting 8 32.8
2016-Jun-24 17:30 197 5 gusting 9 32.8
2016-Jun-24 17:16 179 6 gusting 11 33.3
2016-Jun-24 17:00 192 1 gusting 10 33.9
2016-Jun-24 16:46 178 4 gusting 13 33.3
2016-Jun-24 16:31 165 0 gusting 8 33.9
2016-Jun-24 16:15 220 2 gusting 13 33.9
2016-Jun-24 16:00 149 1 gusting 12 33.9
2016-Jun-24 15:47 173 8 gusting 16 33.9
2016-Jun-24 15:31 259 11 gusting 18 33.9
2016-Jun-24 15:15 114 6 gusting 12 33.9
2016-Jun-24 15:00 157 4 gusting 15 34.4
2016-Jun-24 14:45 135 6 gusting 13 33.9
2016-Jun-24 14:31 154 11 gusting 15 33.9
2016-Jun-24 14:15 178 7 gusting 15 33.9
2016-Jun-24 14:00 135 10 gusting 15 33.9
2016-Jun-24 13:45 123 8 gusting 19 33.3
2016-Jun-24 13:30 145 10 gusting 16 33.3
2016-Jun-24 13:14 146 10 gusting 20 33.3
2016-Jun-24 13:01 142 6 gusting 18 33.3
2016-Jun-24 12:45 166 10 gusting 19 33.3
2016-Jun-24 12:29 157 9 gusting 19 33.3
2016-Jun-24 12:16 161 11 gusting 17 33.3
2016-Jun-24 12:00 186 8 gusting 19 32.8
2016-Jun-24 11:45 178 9 gusting 21 32.8
2016-Jun-24 11:30 218 8 gusting 19 32.8
2016-Jun-24 11:16 213 9 gusting 19 32.8
2016-Jun-24 10:59 211 3 gusting 10 32.2
2016-Jun-24 10:44 342 0 gusting 9 31.7
2016-Jun-24 10:30 016 3 gusting 5 31.1
2016-Jun-24 10:16 017 3 gusting 9 30.6
2016-Jun-24 09:59 009 30.0
2016-Jun-24 09:44 347 2 gusting 5 28.9
2016-Jun-24 09:32 086 28.9
2016-Jun-24 09:17 086 28.3
2016-Jun-24 09:02 130 27.2
2016-Jun-24 08:44 143 26.7
2016-Jun-24 08:29 143 26.1
2016-Jun-24 08:15 143 25.6
2016-Jun-24 08:00 143 25.0
2016-Jun-24 07:44 143 24.4
2016-Jun-24 07:28 143 24.4
2016-Jun-24 07:14 143 23.3
2016-Jun-24 06:58 143 22.8
2016-Jun-24 06:43 143 22.2
2016-Jun-24 06:28 143 21.7
2016-Jun-24 06:13 144 20.0
2016-Jun-24 05:58 144 19.4
2016-Jun-24 05:44 144 18.9
2016-Jun-24 05:28 144 18.9
2016-Jun-24 05:13 144 18.9
2016-Jun-24 04:58 215 18.9
2016-Jun-24 04:43 215 18.9
2016-Jun-24 04:28 215 18.3
2016-Jun-24 04:13 215 18.9
2016-Jun-24 03:58 215 19.4
2016-Jun-24 03:42 215 20.0
2016-Jun-24 03:29 215 20.0
2016-Jun-24 03:13 215 20.6
2016-Jun-24 02:57 215 20.6
2016-Jun-24 02:42 215 20.0
2016-Jun-24 02:28 215 20.0
2016-Jun-24 02:12 215 20.6
2016-Jun-24 01:57 215 20.6
2016-Jun-24 01:42 215 21.1
2016-Jun-24 01:29 215 21.7
2016-Jun-24 01:12 215 21.7
2016-Jun-24 00:57 215 21.7
2016-Jun-24 00:42 215 22.2
2016-Jun-24 00:28 215 22.2
2016-Jun-24 00:13 215 22.2
2016-Jun-23 23:59 215 22.8
2016-Jun-23 23:43 215 22.8
2016-Jun-23 23:28 215 23.3
2016-Jun-23 23:12 215 23.3
2016-Jun-23 22:58 215 23.3
2016-Jun-23 22:42 215 23.9
2016-Jun-23 22:27 215 23.9
2016-Jun-23 22:15 215 24.4
2016-Jun-23 21:58 215 25.0
2016-Jun-23 21:42 215 25.0
2016-Jun-23 21:27 215 25.0
2016-Jun-23 21:13 215 25.6
2016-Jun-23 20:57 215 26.1
2016-Jun-23 20:42 215 26.1
2016-Jun-23 20:28 215 26.7
2016-Jun-23 20:12 215 27.2
2016-Jun-23 19:57 215 0 gusting 4 27.8
2016-Jun-23 19:41 215 1 gusting 5 28.3
2016-Jun-23 19:26 215 2 gusting 4 28.9
2016-Jun-23 19:12 215 30.0
2016-Jun-23 18:57 219 2 gusting 4 30.6
2016-Jun-23 18:41 220 0 gusting 5 31.1
2016-Jun-23 18:27 221 1 gusting 5 31.7
2016-Jun-23 18:13 223 31.7
2016-Jun-23 17:57 229 32.2
2016-Jun-23 17:42 236 2 gusting 6 32.8
2016-Jun-23 17:27 265 2 gusting 7 33.3
2016-Jun-23 17:12 348 1 gusting 8 34.4
2016-Jun-23 16:57 034 34.4
2016-Jun-23 16:42 035 1 gusting 7 34.4
2016-Jun-23 16:27 063 33.9
2016-Jun-23 16:12 323 33.9
2016-Jun-23 15:57 009 3 gusting 8 33.3
2016-Jun-23 15:42 300 3 gusting 13 33.3
2016-Jun-23 15:27 005 1 gusting 8 33.9
2016-Jun-23 15:12 315 3 gusting 8 33.9
2016-Jun-23 14:56 026 4 gusting 10 33.3
2016-Jun-23 14:43 345 5 gusting 9 32.8
2016-Jun-23 14:27 310 3 gusting 9 32.8
2016-Jun-23 14:12 248 6 gusting 9 32.8
2016-Jun-23 13:58 294 1 gusting 10 32.8
2016-Jun-23 13:41 294 6 gusting 9 32.8
2016-Jun-23 13:27 350 2 gusting 10 32.2
2016-Jun-23 13:11 298 0 gusting 5 32.2
2016-Jun-23 12:57 294 2 gusting 10 32.2
2016-Jun-23 12:41 229 2 gusting 8 31.7
2016-Jun-23 12:26 263 31.1
2016-Jun-23 12:11 253 0 gusting 6 30.6
2016-Jun-23 11:56 249 6 gusting 9 30.6
2016-Jun-23 11:41 335 0 gusting 9 30.6
2016-Jun-23 11:26 325 2 gusting 6 31.1
2016-Jun-23 11:11 355 30.6
2016-Jun-23 10:56 342 0 gusting 5 29.4
2016-Jun-23 10:41 024 0 gusting 5 29.4
2016-Jun-23 10:26 024 28.3
2016-Jun-23 10:11 027 27.8
2016-Jun-23 09:56 013 0 gusting 6 27.2
2016-Jun-23 09:40 355 1 gusting 6 26.7
2016-Jun-23 09:26 327 26.1
2016-Jun-23 09:10 327 25.6
2016-Jun-23 08:55 318 25.0
2016-Jun-23 08:42 315 25.0
2016-Jun-23 08:25 299 24.4
2016-Jun-23 08:11 299 23.9
2016-Jun-23 07:58 299 23.9
2016-Jun-23 07:44 295 22.8
2016-Jun-23 07:28 287 21.1
2016-Jun-23 07:14 180 20.6